Hourly Weather Kiwity

Today, 25 July, Sunday

Time Temperature Precipitation Wind Pressure Humidity
00:00 +17°C° 0 mm 2 mps 752 mmHg 80%
01:00 +17°C° 0 mm 2 mps 752 mmHg 82%
02:00 +16°C° 0 mm 2 mps 752 mmHg 83%
03:00 +16°C° 0 mm 2 mps 752 mmHg 85%
04:00 +16°C° 0 mm 2 mps 752 mmHg 86%
05:00 +18°C° 0 mm 2 mps 752 mmHg 80%
06:00 +20°C° 0 mm 3 mps 752 mmHg 74%
07:00 +22°C° 0 mm 3 mps 752 mmHg 69%
08:00 +24°C° 0 mm 3 mps 752 mmHg 63%
09:00 +26°C° 0 mm 3 mps 752 mmHg 58%
10:00 +27°C° 0 mm 4 mps 752 mmHg 53%
11:00 +28°C° 0 mm 4 mps 752 mmHg 50%
12:00 +29°C° 0 mm 4 mps 752 mmHg 48%
13:00 +29°C° 0 mm 4 mps 751 mmHg 45%
14:00 +29°C° 0.1 mm 4 mps 751 mmHg 50%
15:00 +28°C° 0.1 mm 4 mps 751 mmHg 55%
16:00 +27°C° 0.1 mm 4 mps 751 mmHg 60%
17:00 +26°C° 0.2 mm 4 mps 751 mmHg 64%
18:00 +24°C° 0.2 mm 3 mps 751 mmHg 68%
19:00 +23°C° 0.2 mm 2 mps 751 mmHg 72%
20:00 +21°C° 0.1 mm 3 mps 751 mmHg 74%
21:00 +20°C° 0.1 mm 3 mps 751 mmHg 76%
22:00 +20°C° 0.1 mm 3 mps 751 mmHg 79%
23:00 +19°C° 0 mm 3 mps 751 mmHg 79%

Tomorrow, 26 July, Monday

Time Temperature Precipitation Wind Pressure Humidity
00:00 +19°C° 0 mm 3 mps 751 mmHg 79%
01:00 +19°C° 0 mm 3 mps 751 mmHg 79%
02:00 +18°C° 0 mm 3 mps 751 mmHg 79%
03:00 +18°C° 0 mm 3 mps 751 mmHg 79%
04:00 +18°C° 0 mm 3 mps 751 mmHg 79%
05:00 +19°C° 0 mm 3 mps 751 mmHg 76%
06:00 +20°C° 0 mm 3 mps 751 mmHg 73%
07:00 +21°C° 0 mm 3 mps 751 mmHg 71%
08:00 +23°C° 0 mm 4 mps 751 mmHg 65%
09:00 +26°C° 0 mm 5 mps 751 mmHg 60%
10:00 +27°C° 0 mm 6 mps 751 mmHg 55%
11:00 +28°C° 0 mm 6 mps 751 mmHg 51%
12:00 +29°C° 0 mm 6 mps 750 mmHg 48%
13:00 +30°C° 0 mm 6 mps 750 mmHg 45%
14:00 +29°C° 0.1 mm 6 mps 750 mmHg 53%
15:00 +27°C° 0.1 mm 5 mps 750 mmHg 61%
16:00 +26°C° 0.1 mm 5 mps 750 mmHg 69%
17:00 +25°C° 0.2 mm 5 mps 750 mmHg 74%
18:00 +23°C° 0.2 mm 4 mps 750 mmHg 79%
19:00 +21°C° 0.2 mm 4 mps 750 mmHg 84%
20:00 +21°C° 0.5 mm 4 mps 750 mmHg 87%
21:00 +20°C° 0.5 mm 4 mps 750 mmHg 89%
22:00 +19°C° 0.5 mm 4 mps 750 mmHg 92%
23:00 +19°C° 0.3 mm 3 mps 749 mmHg 92%

Day after tomorrow, 27 July, Tuesday

Time Temperature Precipitation Wind Pressure Humidity
00:00 +19°C° 0.3 mm 3 mps 749 mmHg 92%
01:00 +19°C° 0.3 mm 2 mps 749 mmHg 92%
02:00 +19°C° 0.3 mm 3 mps 749 mmHg 93%
03:00 +18°C° 0.3 mm 3 mps 748 mmHg 95%
04:00 +18°C° 0.3 mm 3 mps 748 mmHg 96%
05:00 +19°C° 0.3 mm 2 mps 748 mmHg 96%
06:00 +19°C° 0.3 mm 2 mps 748 mmHg 95%
07:00 +19°C° 0.3 mm 2 mps 748 mmHg 95%
08:00 +20°C° 0 mm 2 mps 748 mmHg 93%
09:00 +21°C° 0 mm 2 mps 748 mmHg 90%
10:00 +21°C° 0 mm 2 mps 748 mmHg 88%
11:00 +23°C° 0.2 mm 2 mps 748 mmHg 84%
12:00 +24°C° 0.2 mm 2 mps 748 mmHg 80%
13:00 +25°C° 0.2 mm 2 mps 748 mmHg 77%
14:00 +26°C° 0.3 mm 3 mps 748 mmHg 74%
15:00 +26°C° 0.3 mm 3 mps 748 mmHg 71%
16:00 +27°C° 0.3 mm 3 mps 748 mmHg 69%
17:00 +25°C° 0.8 mm 3 mps 748 mmHg 77%
18:00 +22°C° 0.8 mm 3 mps 748 mmHg 85%
19:00 +20°C° 0.8 mm 3 mps 749 mmHg 93%
20:00 +19°C° 0 mm 3 mps 749 mmHg 92%
21:00 +19°C° 0 mm 2 mps 749 mmHg 91%
22:00 +19°C° 0 mm 1 mps 749 mmHg 91%
23:00 +19°C° 0 mm 1 mps 749 mmHg 91%

28 July, Wednesday

Time Temperature Precipitation Wind Pressure Humidity
00:00 +18°C° 0 mm 2 mps 749 mmHg 91%
01:00 +17°C° 0 mm 2 mps 749 mmHg 91%
02:00 +17°C° 0 mm 2 mps 749 mmHg 91%
03:00 +17°C° 0 mm 2 mps 749 mmHg 91%
04:00 +17°C° 0 mm 2 mps 749 mmHg 90%
05:00 +18°C° 0 mm 2 mps 749 mmHg 87%
06:00 +20°C° 0 mm 2 mps 749 mmHg 83%
07:00 +23°C° 0 mm 2 mps 749 mmHg 80%
08:00 +24°C° 0.3 mm 2 mps 749 mmHg 73%
09:00 +26°C° 0.3 mm 3 mps 749 mmHg 65%
10:00 +27°C° 0.3 mm 4 mps 749 mmHg 58%
11:00 +28°C° 0 mm 4 mps 749 mmHg 55%
12:00 +28°C° 0 mm 4 mps 749 mmHg 51%
13:00 +29°C° 0 mm 4 mps 749 mmHg 48%
14:00 +28°C° 0 mm 3 mps 749 mmHg 53%
15:00 +27°C° 0 mm 2 mps 749 mmHg 59%
16:00 +27°C° 0 mm 2 mps 749 mmHg 64%
17:00 +26°C° 0 mm 2 mps 749 mmHg 67%
18:00 +25°C° 0 mm 2 mps 749 mmHg 69%
19:00 +24°C° 0 mm 1 mps 749 mmHg 72%
20:00 +23°C° 0 mm 2 mps 749 mmHg 73%
21:00 +23°C° 0 mm 2 mps 749 mmHg 73%
22:00 +21°C° 0 mm 2 mps 749 mmHg 73%
23:00 +20°C° 0 mm 2 mps 749 mmHg 77%

29 July, Thursday

Time Temperature Precipitation Wind Pressure Humidity
00:00 +20°C° 0 mm 2 mps 749 mmHg 81%
01:00 +19°C° 0 mm 2 mps 749 mmHg 84%
02:00 +18°C° 0 mm 2 mps 750 mmHg 87%
03:00 +18°C° 0 mm 2 mps 750 mmHg 90%
04:00 +17°C° 0 mm 2 mps 750 mmHg 93%
05:00 +18°C° 0 mm 2 mps 750 mmHg 87%
06:00 +19°C° 0 mm 3 mps 750 mmHg 81%
07:00 +20°C° 0 mm 3 mps 751 mmHg 75%
08:00 +22°C° 0 mm 3 mps 751 mmHg 69%
09:00 +24°C° 0 mm 3 mps 751 mmHg 64%
10:00 +25°C° 0 mm 3 mps 751 mmHg 58%
11:00 +26°C° 0 mm 3 mps 751 mmHg 55%
12:00 +26°C° 0 mm 3 mps 751 mmHg 52%
13:00 +27°C° 0 mm 3 mps 750 mmHg 50%
14:00 +27°C° 0 mm 2 mps 750 mmHg 52%
15:00 +26°C° 0 mm 1 mps 750 mmHg 54%
16:00 +26°C° 0 mm 1 mps 750 mmHg 57%
17:00 +25°C° 0 mm 1 mps 750 mmHg 59%
18:00 +24°C° 0 mm 2 mps 749 mmHg 62%
19:00 +23°C° 0 mm 2 mps 749 mmHg 64%
20:00 +23°C° 0 mm 2 mps 749 mmHg 64%
21:00 +21°C° 0 mm 2 mps 749 mmHg 64%
22:00 +21°C° 0 mm 3 mps 749 mmHg 65%
23:00 +21°C° 0 mm 3 mps 749 mmHg 66%

30 July, Friday

Time Temperature Precipitation Wind Pressure Humidity
00:00 +20°C° 0 mm 3 mps 749 mmHg 68%
01:00 +20°C° 0 mm 3 mps 748 mmHg 69%
02:00 +20°C° 0 mm 3 mps 748 mmHg 69%
03:00 +20°C° 0 mm 3 mps 748 mmHg 69%
04:00 +20°C° 0 mm 2 mps 748 mmHg 69%
05:00 +21°C° 0.1 mm 3 mps 748 mmHg 70%
06:00 +21°C° 0.1 mm 3 mps 748 mmHg 70%
07:00 +22°C° 0.1 mm 3 mps 748 mmHg 71%
08:00 +25°C° 0 mm 4 mps 748 mmHg 64%
09:00 +27°C° 0 mm 5 mps 747 mmHg 58%
10:00 +28°C° 0 mm 6 mps 747 mmHg 51%
11:00 +29°C° 0 mm 6 mps 746 mmHg 51%
12:00 +29°C° 0 mm 5 mps 746 mmHg 51%
13:00 +29°C° 0 mm 5 mps 745 mmHg 50%
14:00 +28°C° 0.2 mm 5 mps 745 mmHg 55%
15:00 +27°C° 0.2 mm 5 mps 744 mmHg 60%
16:00 +26°C° 0.2 mm 4 mps 744 mmHg 65%
17:00 +25°C° 1.1 mm 4 mps 744 mmHg 74%
18:00 +22°C° 1.1 mm 3 mps 744 mmHg 84%
19:00 +21°C° 1.1 mm 3 mps 745 mmHg 93%
20:00 +20°C° 0.1 mm 2 mps 745 mmHg 94%
21:00 +19°C° 0.1 mm 2 mps 745 mmHg 95%
22:00 +18°C° 0.1 mm 2 mps 746 mmHg 97%
23:00 +19°C° 0 mm 1 mps 746 mmHg 96%
Show more